Regional Weather Roundup
Issued by NWS Newport/Morehead, NC

Current Version | Previous Version | Text Only | Print | Product List | Glossary On
Versions: 1 2 3 4 5 6 7 8 9 10 11 12 13 14 15 16 17 18 19 20 21 22 23 24 25 26 27 28 29 30 31 32 33 34 35 36 37 38 39 40 41 42 43 44 45 46 47 48 49 50
000
ASUS42 KMHX 242113
RWRMHX
WEATHER ROUNDUP FOR EASTERN NORTH CAROLINA
NATIONAL WEATHER SERVICE NEWPORT/MOREHEAD CITY NC
500 PM EDT FRI MAR 24 2017

NOTE: "FAIR" INDICATES FEW OR NO CLOUDS BELOW 12,000 FEET
WITH NO SIGNIFICANT WEATHER AND/OR OBSTRUCTIONS TO VISIBILITY

NCZ015>017-031-032-045>047-102-103-242200-
NORTH COAST

CITY           SKY/WX    TMP DP  RH WIND       PRES   REMARKS
EDENTON        NOT AVBL
ELIZABETH CITY SUNNY     68  43  40 SW16G23   30.36F
KITTY HAWK     NOT AVBL
MANTEO         SUNNY     63  47  56 SW20      30.38F

$$

NCZ045>047-081-094-103-104-242200-
CENTRAL COAST

CITY           SKY/WX    TMP DP  RH WIND       PRES   REMARKS
FRISCO         SUNNY     65  50  58 SW8       30.43F

$$

NCZ095-097-098-100-101-242200-
SOUTHERN COAST

CITY           SKY/WX    TMP DP  RH WIND       PRES   REMARKS
BEAUFORT       SUNNY     67  50  54 SW14      30.43F
CEDAR ISLAND   NOT AVBL
JACKSONVILLE   SUNNY     69  50  50 S14G21    30.40F
PINEY ISLAND   CLEAR    N/A N/A N/A SW18G24   30.42S
WILMINGTON     SUNNY     69  50  50 S16G25    30.41F


$$

NCZ011>013-027>030-043-044-078>080-089-090>093-098-242200-
COASTAL PLAIN

CITY           SKY/WX    TMP DP  RH WIND       PRES   REMARKS
AHOSKIE        NOT AVBL
CLINTON        MOSUNNY   71  47  41 SW5       30.38F
ELIZABETHTOWN  MOSUNNY   73  44  35 S9        30.38F
GOLDSBORO      MOSUNNY   73  43  33 SW13      30.35F
GREENVILLE     SUNNY     72  45  37 SW10G18   30.37F
HAVELOCK       MOSUNNY   68  47  46 S17G24    30.42F
KENANSVILLE    SUNNY     73  43  33 SW9G17    30.38F
KINSTON        MOSUNNY   73  41  31 SW8       30.38F
NEW BERN       MOSUNNY   69  47  45 S15       30.41F
RICHLANDS      SUNNY     70  49  47 S15       30.39F
ROCKY MOUNT    SUNNY     70  47  43 S12G22    30.36F
WASHINGTON     SUNNY     71  44  37 W8G16     30.37F
WHITEVILLE     MOSUNNY   71  45  39 S10       30.39F

$$

AMZ130-135-150-152-154-156-158-170-250-252-270-ANZ085-086-088-633-658-670-242200-
MARINE OBSERVATIONS

STATION/POSITION TIME  TEMP    WIND        PRES    WAVE   SWELL
                       AIR SEA DIR/SP/G            HT/PER HT/PER
                 (UTC) (F)     (DEG/KT/KT) (MB)    (FT/S) (FT/S)
CHESAPEAKE LIGHT NOT AVBL
64 E VA BEACH    2050   54 51  190/ 14/ 16 1028.4    3/ 8   2/ 8
DUCK             2048   63 47  200/ 10/ 13 1027.8
2 E DUCK         2100      51                N/A     2/11   2/11
OREGON INLET     2042   57 52  180/ 14/ 15 1029.4
13E OREGON INLT  NOT AVBL
HATTERAS CG      2042   63 54  220/  8/ 12 1030.2
DIAMOND BUOY     2050   65 74  210/ 16/ 21 1030.5    4/10   3/10
CAPE LOOKOUT     2100   66     210/ 11/ 14 1030.0
BEAUFORT LAB     2048   64 52  210/ 10/ 12 1029.4
30 SE NEW RVR IN 2008   66     200/ 10/ 14 1030.8
30 SE NEW RVR IN 2043      69                N/A     3/ 7   2/11
27 SE WRIGHTSVLE 2008   65 63  160/ 10/ 14 1029.8
5 SE WRIGHTSVLE  2008   62 58  160/  4/  6 1030.6
225 S CAPE HAT   2050   64 74   80/ 12/ 14 1031.2    6/ 9   5/ 9
41 SE CHARLESTON 2050   69 72  130/ 14/ 16 1029.1    4/ 8   3/ 8

$$




USA.gov is the U.S. government's official web portal to all federal, state and local government web resources and services.